N1OTX Weather Reports


time (UTC)temp
C
wind
direction
speed
KPH
gust
KPH
rain 1hr
cm
rain 24hr
cm
rain mn
cm
humidity
%
barometer
mb
20230928021507 8 0.0 0.0 0.00 0.00 0.00 91 1027.7
20230928021037 8 0.0 0.0 0.00 0.00 0.00 91 1027.7
20230928020537 8 0.0 0.0 0.00 0.00 0.00 91 1027.8
20230928020007 8 0.0 0.0 0.00 0.00 0.00 91 1027.7
20230928015506 8 0.0 0.0 0.00 0.00 0.00 91 1027.7
20230928015006 8 0.0 0.0 0.00 0.00 0.00 91 1027.8
20230928014537 8 0.0 0.0 0.00 0.00 0.00 91 1027.8
20230928014006 8 0.0 0.0 0.00 0.00 0.00 91 1027.9
20230928013507 8 0.0 0.0 0.00 0.00 0.00 91 1027.9
20230928013007 9 0.0 0.0 0.00 0.00 0.00 91 1027.8
20230928012507 9 0.0 0.0 0.00 0.00 0.00 90 1027.9
20230928012006 9 0.0 0.0 0.00 0.00 0.00 90 1027.9
20230928011507 9 0.0 0.0 0.00 0.00 0.00 91 1027.8
20230928011006 9 0.0 0.0 0.00 0.00 0.00 90 1027.8
20230928010506 9 0.0 0.0 0.00 0.00 0.00 90 1027.8
20230928010006 9 0.0 0.0 0.00 0.00 0.00 90 1027.8
20230928005506 9 0.0 0.0 0.00 0.00 0.00 90 1027.9
20230928005006 10 0.0 0.0 0.00 0.00 0.00 90 1027.8
20230928004507 10 0.0 0.0 0.00 0.00 0.00 90 1027.8
20230928004007 10 0.0 0.0 0.00 0.00 0.00 90 1027.7
20230928003506 10 0.0 0.0 0.00 0.00 0.00 89 1027.7
20230928003007 10 0.0 0.0 0.00 0.00 0.00 89 1027.6
20230928002507 10 0.0 0.0 0.00 0.00 0.00 89 1027.6
20230928002006 10 0.0 0.0 0.00 0.00 0.00 89 1027.6
20230928001507 10 0.0 0.0 0.00 0.00 0.00 89 1027.6
20230928001036 10 0.0 0.0 0.00 0.00 0.00 89 1027.6
20230928000607 10 0.0 0.0 0.00 0.00 0.00 89 1027.6
20230928000037 10 0.0 0.0 0.00 0.00 0.00 89 1027.5
20230927235506 10 0.0 0.0 0.00 0.00 0.00 88 1027.6
20230927235007 11 0.0 0.0 0.00 0.00 0.00 88 1027.6
20230927234506 11 0.0 0.0 0.00 0.00 0.00 88 1027.6
20230927234006 11 0.0 0.0 0.00 0.00 0.00 87 1027.5
20230927233506 11 0.0 0.0 0.00 0.00 0.00 87 1027.5
20230927233037 11 0.0 0.0 0.00 0.00 0.00 87 1027.5
20230927232506 11 0.0 0.0 0.00 0.00 0.00 87 1027.5
20230927232006 11 0.0 0.0 0.00 0.00 0.00 86 1027.5
20230927231506 11 0.0 0.0 0.00 0.00 0.00 86 1027.4
20230927231036 11 0.0 0.0 0.00 0.00 0.00 85 1027.4
20230927230506 11 0.0 0.0 0.00 0.00 0.00 85 1027.4
20230927230006 12 0.0 0.0 0.00 0.00 0.00 84 1027.4
20230927225506 12 0.0 0.0 0.00 0.00 0.00 84 1027.3
20230927225006 12 0.0 0.0 0.00 0.00 0.00 83 1027.3
20230927224506 12 0.0 0.0 0.00 0.00 0.00 82 1027.4
20230927224006 12 0.0 0.0 0.00 0.00 0.00 81 1027.3
20230927223607 12 0.0 0.0 0.00 0.00 0.00 80 1027.3
20230927223036 13 0.0 0.0 0.00 0.00 0.00 79 1027.3
20230927222506 13 0.0 0.0 0.00 0.00 0.00 78 1027.3
20230927222006 13 0.0 0.0 0.00 0.00 0.00 77 1027.2
20230927221506 13 0.0 0.0 0.00 0.00 0.00 79 1027.3
20230927221006 14 0.0 0.0 0.00 0.00 0.00 79 1027.3
20230927220506 14 0.0 0.0 0.00 0.00 0.00 77 1027.3
20230927220006 14 0.0 0.0 0.00 0.00 0.00 76 1027.2
20230927215507 15 0.0 0.0 0.00 0.00 0.00 75 1027.2
20230927215036 15 0.0 0.0 0.00 0.00 0.00 74 1027.1
20230927214506 15 0.0 1.6 0.00 0.00 0.00 72 1027.1
20230927214006 15 0.0 0.0 0.00 0.00 0.00 72 1027.1
20230927213536 15 0.0 0.0 0.00 0.00 0.00 73 1027.3
20230927213006 16 0.0 0.0 0.00 0.00 0.00 72 1027.3
20230927212606 16 0.0 0.0 0.00 0.00 0.00 69 1027.1
20230927212006 16 0.0 4.8 0.00 0.00 0.00 70 1027.1
20230927211506 16 0.0 4.8 0.00 0.00 0.00 71 1027.2
20230927211006 16 0.0 0.0 0.00 0.00 0.00 71 1027.1
20230927210506 16 0.0 9.7 0.00 0.00 0.00 67 1027.1
20230927210006 16 0.0 0.0 0.00 0.00 0.00 67 1027.0
20230927205506 16 0.0 9.7 0.00 0.00 0.00 68 1027.1
20230927205006 17 0.0 4.8 0.00 0.00 0.00 67 1027.1
20230927204506 17 0.0 8.0 0.00 0.00 0.00 66 1027.0
20230927204037 17 68 1.6 8.0 0.00 0.00 0.00 65 1027.2
20230927203506 17 0.0 3.2 0.00 0.00 0.00 64 1027.1
20230927203006 17 0.0 4.8 0.00 0.00 0.00 65 1027.2
20230927202506 17 90 1.6 8.0 0.00 0.00 0.00 64 1027.1
20230927202006 17 113 1.6 11.3 0.00 0.00 0.00 64 1027.0
20230927201506 17 0.0 1.6 0.00 0.00 0.00 65 1027.1
20230927201006 17 0.0 1.6 0.00 0.00 0.00 64 1027.2
20230927200506 17 0.0 0.0 0.00 0.00 0.00 65 1027.2
20230927200006 17 0.0 1.6 0.00 0.00 0.00 64 1027.3
20230927195506 17 113 1.6 6.4 0.00 0.00 0.00 66 1027.2
20230927195006 17 0.0 9.7 0.00 0.00 0.00 65 1027.3
20230927194506 18 68 1.6 12.9 0.00 0.00 0.00 64 1027.2
20230927194006 18 113 1.6 16.1 0.00 0.00 0.00 62 1027.3
20230927193506 17 0.0 12.9 0.00 0.00 0.00 63 1027.3
20230927193036 18 0.0 6.4 0.00 0.00 0.00 64 1027.3
20230927192506 18 113 1.6 9.7 0.00 0.00 0.00 61 1027.4
20230927192006 18 90 1.6 8.0 0.00 0.00 0.00 60 1027.4
20230927191506 18 90 1.6 11.3 0.00 0.00 0.00 60 1027.5
20230927191006 18 113 1.6 14.5 0.00 0.00 0.00 62 1027.6
20230927190506 18 113 1.6 11.3 0.00 0.00 0.00 61 1027.6
20230927190006 18 0.0 8.0 0.00 0.00 0.00 63 1027.6
20230927185536 18 68 1.6 11.3 0.00 0.00 0.00 64 1027.6
20230927185106 18 0.0 0.0 0.00 0.00 0.00 64 1027.8
20230927184637 18 135 1.6 14.5 0.00 0.00 0.00 60 1027.7
20230927184006 18 0.0 6.4 0.00 0.00 0.00 63 1027.7
20230927183506 18 113 1.6 11.3 0.00 0.00 0.00 61 1027.8
20230927183006 18 68 1.6 11.3 0.00 0.00 0.00 62 1028.1
20230927182506 18 0.0 1.6 0.00 0.00 0.00 62 1028.0
20230927182006 18 0.0 4.8 0.00 0.00 0.00 62 1028.1
20230927181506 18 0.0 4.8 0.00 0.00 0.00 65 1028.1
20230927181006 18 68 3.2 12.9 0.00 0.00 0.00 61 1028.3
20230927180506 18 0.0 4.8 0.00 0.00 0.00 64 1028.2
20230927180036 18 113 1.6 11.3 0.00 0.00 0.00 64 1028.3
20230927175506 18 90 1.6 9.7 0.00 0.00 0.00 63 1028.3
20230927175006 18 0.0 3.2 0.00 0.00 0.00 62 1028.3
20230927174506 18 90 1.6 9.7 0.00 0.00 0.00 65 1028.4
20230927174006 18 90 1.6 11.3 0.00 0.00 0.00 63 1028.5
20230927173506 18 90 1.6 6.4 0.00 0.00 0.00 61 1028.4
20230927173006 17 90 1.6 12.9 0.00 0.00 0.00 63 1028.4
20230927172506 18 113 3.2 17.7 0.00 0.00 0.00 60 1028.6
20230927172006 18 113 4.8 16.1 0.00 0.00 0.00 62 1028.5
20230927171606 18 0.0 4.8 0.00 0.00 0.00 64 1028.6
20230927171006 18 113 4.8 14.5 0.00 0.00 0.00 61 1028.8
20230927170506 18 90 1.6 12.9 0.00 0.00 0.00 62 1028.9
20230927170006 18 90 1.6 11.3 0.00 0.00 0.00 61 1028.9
20230927165506 18 135 3.2 11.3 0.00 0.00 0.00 62 1028.9
20230927165006 18 90 1.6 11.3 0.00 0.00 0.00 62 1028.9
20230927164506 18 135 3.2 12.9 0.00 0.00 0.00 61 1028.9
20230927164006 18 113 3.2 12.9 0.00 0.00 0.00 64 1029.0
20230927163506 18 113 3.2 11.3 0.00 0.00 0.00 61 1029.0
20230927163006 18 113 1.6 11.3 0.00 0.00 0.00 62 1029.0
20230927162606 18 113 1.6 8.0 0.00 0.00 0.00 63 1029.0
20230927162006 17 338 1.6 8.0 0.00 0.00 0.00 67 1029.0
20230927161506 17 0.0 6.4 0.00 0.00 0.00 69 1029.2
20230927161006 17 90 1.6 11.3 0.00 0.00 0.00 63 1029.3
20230927160506 17 0.0 3.2 0.00 0.00 0.00 64 1029.4
20230927160006 17 0.0 6.4 0.00 0.00 0.00 67 1029.4
20230927155506 17 0.0 3.2 0.00 0.00 0.00 66 1029.4
20230927155006 17 90 1.6 11.3 0.00 0.00 0.00 67 1029.4
20230927154506 17 113 6.4 12.9 0.00 0.00 0.00 65 1029.5
20230927154006 17 90 4.8 11.3 0.00 0.00 0.00 70 1029.5
20230927153536 17 113 4.8 9.7 0.00 0.00 0.00 72 1029.4
20230927153006 16 113 1.6 9.7 0.00 0.00 0.00 68 1029.4
20230927152506 16 113 1.6 12.9 0.00 0.00 0.00 70 1029.3
20230927152006 16 0.0 3.2 0.00 0.00 0.00 69 1029.3
20230927151506 16 68 1.6 9.7 0.00 0.00 0.00 71 1029.3
20230927151006 16 0.0 6.4 0.00 0.00 0.00 70 1029.2
20230927150505 16 0.0 0.0 0.00 0.00 0.00 72 1029.2
20230927150006 16 0.0 6.4 0.00 0.00 0.00 72 1029.2
20230927145536 15 0.0 3.2 0.00 0.00 0.00 75 1029.2
20230927145006 15 0.0 0.0 0.00 0.00 0.00 76 1029.1
20230927144506 15 0.0 6.4 0.00 0.00 0.00 75 1029.1
20230927144005 15 0.0 3.2 0.00 0.00 0.00 74 1029.1
20230927143506 15 0.0 0.0 0.00 0.00 0.00 75 1029.0
20230927143006 15 0.0 0.0 0.00 0.00 0.00 75 1029.0
20230927142505 15 0.0 0.0 0.00 0.00 0.00 76 1029.0
20230927142006 15 0.0 4.8 0.00 0.00 0.00 78 1028.9
20230927141505 15 0.0 0.0 0.00 0.00 0.00 77 1029.0
20230927141006 15 0.0 0.0 0.00 0.00 0.00 77 1028.9
20230927140506 14 0.0 0.0 0.00 0.00 0.00 81 1029.2
20230927140005 14 0.0 0.0 0.00 0.00 0.00 80 1029.1
20230927135505 13 0.0 1.6 0.00 0.00 0.00 80 1029.2
20230927135006 13 0.0 0.0 0.00 0.00 0.00 80 1029.2
20230927134506 13 0.0 0.0 0.00 0.00 0.00 81 1029.1
20230927134006 13 0.0 0.0 0.00 0.00 0.00 81 1029.1
20230927133536 13 0.0 4.8 0.00 0.00 0.00 83 1029.0
20230927133005 12 0.0 4.8 0.00 0.00 0.00 86 1029.0
20230927132535 12 0.0 1.6 0.00 0.00 0.00 86 1029.0
20230927132006 11 0.0 0.0 0.00 0.00 0.00 85 1029.1
20230927131506 11 0.0 0.0 0.00 0.00 0.00 86 1029.0
20230927131006 11 0.0 0.0 0.00 0.00 0.00 87 1029.1
20230927130506 11 0.0 0.0 0.00 0.00 0.00 87 1029.1
20230927130006 10 0.0 0.0 0.00 0.00 0.00 87 1029.1
20230927125536 10 0.0 0.0 0.00 0.00 0.00 87 1029.1
20230927125005 10 0.0 0.0 0.00 0.00 0.00 87 1029.1
20230927124505 10 0.0 0.0 0.00 0.00 0.00 88 1029.1
20230927124005 10 0.0 0.0 0.00 0.00 0.00 89 1029.2
20230927123505 10 0.0 0.0 0.00 0.00 0.00 90 1029.1
20230927123005 10 0.0 1.6 0.00 0.00 0.00 90 1029.1
20230927122536 9 0.0 0.0 0.00 0.00 0.00 91 1029.2
20230927122005 9 0.0 0.0 0.00 0.00 0.00 92 1029.1
20230927121505 8 0.0 0.0 0.00 0.00 0.00 92 1029.1
20230927121005 8 0.0 0.0 0.00 0.00 0.00 92 1029.1
20230927120535 7 0.0 0.0 0.00 0.00 0.00 92 1029.2
20230927120005 7 0.0 0.0 0.00 0.00 0.00 93 1029.2
20230927115606 7 0.0 0.0 0.00 0.00 0.00 92 1029.2
20230927115005 6 0.0 0.0 0.00 0.00 0.00 92 1029.3
20230927114505 6 0.0 0.0 0.00 0.00 0.00 92 1029.1
20230927114005 6 0.0 0.0 0.00 0.00 0.00 92 1029.2
20230927113535 5 0.0 0.0 0.00 0.00 0.00 92 1029.2
20230927113005 5 0.0 0.0 0.00 0.00 0.00 92 1029.1
20230927112505 5 0.0 0.0 0.00 0.00 0.00 92 1029.0
20230927112005 5 0.0 0.0 0.00 0.00 0.00 92 1028.9
20230927111505 5 0.0 0.0 0.00 0.00 0.00 92 1029.0
20230927111005 4 0.0 0.0 0.00 0.00 0.00 92 1028.9
20230927110505 4 0.0 0.0 0.00 0.00 0.00 92 1029.0
20230927110005 4 0.0 0.0 0.00 0.00 0.00 92 1028.9
20230927105505 4 0.0 0.0 0.00 0.00 0.00 92 1028.9
20230927105005 4 0.0 0.0 0.00 0.00 0.00 92 1028.9
20230927104505 4 0.0 0.0 0.00 0.00 0.00 92 1028.9
20230927104005 4 0.0 0.0 0.00 0.00 0.00 92 1028.8
20230927103505 4 0.0 0.0 0.00 0.00 0.00 92 1028.8
20230927103005 4 0.0 0.0 0.00 0.00 0.00 92 1028.8
20230927102535 4 0.0 0.0 0.00 0.00 0.00 92 1028.8
20230927102005 4 0.0 0.0 0.00 0.00 0.00 92 1028.8
20230927101505 4 0.0 0.0 0.00 0.00 0.00 92 1028.9
20230927101005 4 0.0 0.0 0.00 0.00 0.00 92 1028.7
20230927100505 4 0.0 0.0 0.00 0.00 0.00 92 1028.7
20230927100106 4 0.0 0.0 0.00 0.00 0.00 92 1028.6
20230927095505 4 0.0 0.0 0.00 0.00 0.00 92 1028.6
20230927095005 4 0.0 0.0 0.00 0.00 0.00 92 1028.6
20230927094505 4 0.0 0.0 0.00 0.00 0.00 92 1028.8
20230927094005 4 0.0 0.0 0.00 0.00 0.00 92 1028.8
20230927093507 5 0.0 0.0 0.00 0.00 0.00 92 1028.7
20230927093007 5 0.0 0.0 0.00 0.00 0.00 92 1028.8
20230927092505 4 0.0 0.0 0.00 0.00 0.00 92 1028.7
20230927092007 4 0.0 0.0 0.00 0.00 0.00 92 1028.7
20230927091507 4 0.0 0.0 0.00 0.00 0.00 92 1028.7
20230927091007 5 0.0 0.0 0.00 0.00 0.00 92 1028.5
20230927090507 5 0.0 0.0 0.00 0.00 0.00 92 1028.5
20230927090037 5 0.0 0.0 0.00 0.00 0.00 92 1028.3
20230927085507 5 0.0 0.0 0.00 0.00 0.00 92 1028.3
20230927085007 5 0.0 0.0 0.00 0.00 0.00 92 1028.1
20230927084507 5 0.0 0.0 0.00 0.00 0.00 92 1028.1
20230927084007 5 0.0 0.0 0.00 0.00 0.00 92 1028.2
20230927083537 5 0.0 0.0 0.00 0.00 0.00 92 1028.1
20230927083007 5 0.0 0.0 0.00 0.00 0.00 92 1028.1
20230927082507 5 0.0 0.0 0.00 0.00 0.00 92 1028.2
20230927082037 5 0.0 0.0 0.00 0.00 0.00 92 1028.2
20230927081507 5 0.0 0.0 0.00 0.00 0.00 92 1028.3
20230927081007 5 0.0 0.0 0.00 0.00 0.00 92 1028.3
20230927080507 5 0.0 0.0 0.00 0.00 0.00 92 1028.3
20230927080007 5 0.0 0.0 0.00 0.00 0.00 92 1028.3
20230927075507 5 0.0 0.0 0.00 0.00 0.00 92 1028.4
20230927075007 5 0.0 0.0 0.00 0.00 0.00 92 1028.5
20230927074507 5 0.0 0.0 0.00 0.00 0.00 92 1028.4
20230927074007 5 0.0 0.0 0.00 0.00 0.00 92 1028.6
20230927073507 5 0.0 0.0 0.00 0.00 0.00 92 1028.6
20230927073007 5 0.0 0.0 0.00 0.00 0.00 92 1028.5
20230927072507 5 0.0 0.0 0.00 0.00 0.00 92 1028.5
20230927072007 5 0.0 0.0 0.00 0.00 0.00 92 1028.5
20230927071507 5 0.0 0.0 0.00 0.00 0.00 92 1028.6
20230927071037 5 0.0 0.0 0.00 0.00 0.00 92 1028.5
20230927070507 5 0.0 0.0 0.00 0.00 0.00 92 1028.6
20230927070007 5 0.0 0.0 0.00 0.00 0.00 92 1028.7
20230927065507 5 0.0 0.0 0.00 0.00 0.00 92 1028.7
20230927065007 5 0.0 0.0 0.00 0.00 0.00 92 1028.6
20230927064507 5 0.0 0.0 0.00 0.00 0.00 92 1028.8
20230927064007 5 0.0 0.0 0.00 0.00 0.00 91 1028.8
20230927063507 5 0.0 0.0 0.00 0.00 0.00 91 1028.8
20230927063037 5 0.0 0.0 0.00 0.00 0.00 92 1029.0
20230927062507 5 0.0 0.0 0.00 0.00 0.00 92 1029.1
20230927062007 5 0.0 0.0 0.00 0.00 0.00 92 1029.1
20230927061507 5 0.0 0.0 0.00 0.00 0.00 92 1029.1
20230927061007 5 0.0 0.0 0.00 0.00 0.00 92 1029.2
20230927060507 5 0.0 0.0 0.00 0.00 0.00 92 1029.2
20230927060007 5 0.0 0.0 0.00 0.00 0.00 92 1029.3
20230927055507 5 0.0 0.0 0.00 0.00 0.00 92 1029.2
20230927055007 5 0.0 0.0 0.00 0.00 0.00 92 1029.3
20230927054507 5 0.0 0.0 0.00 0.00 0.00 92 1029.3
20230927054007 5 0.0 0.0 0.00 0.00 0.00 92 1029.3
20230927053507 5 0.0 0.0 0.00 0.00 0.00 92 1029.3
20230927053007 5 0.0 0.0 0.00 0.00 0.00 91 1029.3
20230927052537 5 0.0 0.0 0.00 0.00 0.00 92 1029.3
20230927052007 5 0.0 0.0 0.00 0.00 0.00 91 1029.3
20230927051507 5 0.0 0.0 0.00 0.00 0.00 92 1029.3
20230927051007 5 0.0 0.0 0.00 0.00 0.00 92 1029.3
20230927050507 5 0.0 0.0 0.00 0.00 0.00 92 1029.3
20230927050007 5 0.0 0.0 0.00 0.00 0.00 92 1029.3
20230927045507 5 0.0 0.0 0.00 0.00 0.00 92 1029.3
20230927045007 5 0.0 0.0 0.00 0.00 0.00 91 1029.2
20230927044507 5 0.0 0.0 0.00 0.00 0.00 91 1029.2
20230927044007 5 0.0 0.0 0.00 0.00 0.00 91 1029.2
20230927043507 5 0.0 0.0 0.00 0.00 0.00 92 1029.1
20230927043007 5 0.0 0.0 0.00 0.00 0.00 92 1029.2
20230927042507 5 0.0 0.0 0.00 0.00 0.00 91 1029.2
20230927042007 5 0.0 0.0 0.00 0.00 0.00 91 1029.2
20230927041537 5 0.0 0.0 0.00 0.00 0.00 91 1029.2
20230927041007 5 0.0 0.0 0.00 0.00 0.00 91 1029.3
20230927040508 5 0.0 0.0 0.00 0.00 0.00 91 1029.3
20230927040006 5 0.0 0.0 0.00 0.00 0.00 91 1029.3
20230927035507 5 0.0 0.0 0.00 0.00 0.00 91 1029.4
20230927035006 5 0.0 0.0 0.00 0.00 0.00 91 1029.3
20230927034507 5 0.0 0.0 0.00 0.00 0.00 91 1029.3
20230927034007 5 0.0 0.0 0.00 0.00 0.00 91 1029.4
20230927033507 5 0.0 0.0 0.00 0.00 0.00 91 1029.4
20230927033007 5 0.0 0.0 0.00 0.00 0.00 91 1029.4
20230927032507 5 0.0 0.0 0.00 0.00 0.00 91 1029.5
20230927032037 5 0.0 0.0 0.00 0.00 0.00 91 1029.4
20230927031507 5 0.0 0.0 0.00 0.00 0.00 91 1029.2
20230927031007 5 0.0 0.0 0.00 0.00 0.00 91 1029.3
20230927030607 6 0.0 0.0 0.00 0.00 0.00 91 1029.3
20230927030137 6 0.0 0.0 0.00 0.00 0.00 91 1029.4
20230927025507 6 0.0 0.0 0.00 0.00 0.00 91 1029.4
20230927025137 5 0.0 0.0 0.00 0.00 0.00 91 1029.5
20230927024506 6 0.0 0.0 0.00 0.00 0.00 91 1029.5
20230927024006 6 0.0 0.0 0.00 0.00 0.00 91 1029.5
20230927023507 5 0.0 0.0 0.00 0.00 0.00 91 1029.5
20230927023007 5 0.0 0.0 0.00 0.00 0.00 91 1029.6
20230927022507 6 0.0 0.0 0.00 0.00 0.00 91 1029.6
20230927022007 6 0.0 0.0 0.00 0.00 0.00 90 1029.5